Saint Bonnet de Bellac- Haute Vienne - France
Donnes mto: lundi, 09/07/2012
Date Horaire Temp. E. Hum. E. P.atmo. Pluie Vent Direction Direction Ensoleilleme Solaire P. de rose Temp au vent Rafales
09/07/2012 00:00 16,6 C 81 % 1015,6 hPa 0,0 mm 3,6 km/h (1 Bft) SO 225 0 min 0 W/m 13,3 C 16,6 C 6,5 km/h (2 Bft)
09/07/2012 00:10 16,3 C 81 % 1015,5 hPa 0,0 mm 0,0 km/h (0 Bft) SO 225 0 min 0 W/m 13,0 C 16,3 C 0,0 km/h (0 Bft)
09/07/2012 00:20 16,0 C 82 % 1015,7 hPa 0,0 mm 2,5 km/h (1 Bft) SO 225 0 min 0 W/m 12,9 C 16,0 C 4,0 km/h (1 Bft)
09/07/2012 00:30 15,8 C 83 % 1015,7 hPa 0,0 mm 0,4 km/h (0 Bft) S-SO 202 0 min 0 W/m 12,9 C 15,8 C 4,0 km/h (1 Bft)
09/07/2012 00:40 15,5 C 84 % 1015,7 hPa 0,0 mm 0,4 km/h (0 Bft) S-SO 202 0 min 0 W/m 12,8 C 15,5 C 0,4 km/h (0 Bft)
09/07/2012 00:50 15,3 C 84 % 1015,8 hPa 0,0 mm 0,0 km/h (0 Bft) S-SO 202 0 min 0 W/m 12,6 C 15,3 C 0,0 km/h (0 Bft)
09/07/2012 01:00 15,2 C 84 % 1015,7 hPa 0,0 mm 0,0 km/h (0 Bft) S-SO 202 0 min 0 W/m 12,5 C 15,2 C 0,0 km/h (0 Bft)
09/07/2012 01:10 15,1 C 86 % 1015,7 hPa 0,0 mm 0,0 km/h (0 Bft) S 180 0 min 0 W/m 12,8 C 15,1 C 0,0 km/h (0 Bft)
09/07/2012 01:20 15,1 C 87 % 1015,8 hPa 0,0 mm 0,4 km/h (0 Bft) S 180 0 min 0 W/m 13,0 C 15,1 C 3,2 km/h (1 Bft)
09/07/2012 01:30 15,1 C 87 % 1015,8 hPa 0,0 mm 2,2 km/h (1 Bft) S-SO 202 0 min 0 W/m 13,0 C 15,1 C 4,3 km/h (1 Bft)
09/07/2012 01:40 15,2 C 87 % 1015,7 hPa 0,0 mm 0,7 km/h (0 Bft) S-SO 202 0 min 0 W/m 13,0 C 15,2 C 4,0 km/h (1 Bft)
09/07/2012 01:50 15,3 C 87 % 1015,7 hPa 0,0 mm 0,4 km/h (0 Bft) SO 225 0 min 0 W/m 13,1 C 15,3 C 3,6 km/h (1 Bft)
09/07/2012 02:00 15,3 C 87 % 1015,7 hPa 0,0 mm 0,0 km/h (0 Bft) SO 225 0 min 0 W/m 13,1 C 15,3 C 3,2 km/h (1 Bft)
09/07/2012 02:10 15,4 C 87 % 1015,8 hPa 0,0 mm 2,2 km/h (1 Bft) S-SO 202 0 min 0 W/m 13,2 C 15,4 C 3,6 km/h (1 Bft)
09/07/2012 02:20 15,4 C 88 % 1015,7 hPa 0,0 mm 3,6 km/h (1 Bft) S-SO 202 0 min 0 W/m 13,4 C 15,4 C 4,0 km/h (1 Bft)
09/07/2012 02:30 15,5 C 88 % 1015,7 hPa 0,0 mm 3,6 km/h (1 Bft) SO 225 0 min 0 W/m 13,5 C 15,5 C 3,6 km/h (1 Bft)
09/07/2012 02:40 15,6 C 88 % 1015,7 hPa 0,0 mm 2,2 km/h (1 Bft) SO 225 0 min 0 W/m 13,6 C 15,6 C 6,1 km/h (2 Bft)
09/07/2012 02:50 15,6 C 87 % 1015,7 hPa 0,0 mm 1,8 km/h (1 Bft) SO 225 0 min 0 W/m 13,4 C 15,6 C 3,6 km/h (1 Bft)
09/07/2012 03:02 15,6 C 87 % 1015,7 hPa 0,0 mm 1,4 km/h (1 Bft) SO 225 0 min 0 W/m 13,4 C 15,6 C 4,3 km/h (1 Bft)
09/07/2012 03:10 15,6 C 87 % 1015,6 hPa 0,0 mm 0,0 km/h (0 Bft) S-SO 202 0 min 0 W/m 13,4 C 15,6 C 0,0 km/h (0 Bft)
09/07/2012 03:20 15,6 C 87 % 1015,6 hPa 0,0 mm 2,2 km/h (1 Bft) SO 225 0 min 0 W/m 13,4 C 15,6 C 3,6 km/h (1 Bft)
09/07/2012 03:30 15,6 C 87 % 1015,6 hPa 0,0 mm 3,2 km/h (1 Bft) S-SO 202 0 min 0 W/m 13,4 C 15,6 C 4,3 km/h (1 Bft)
09/07/2012 03:40 15,6 C 87 % 1015,5 hPa 0,0 mm 3,2 km/h (1 Bft) S-SO 202 0 min 0 W/m 13,4 C 15,6 C 7,6 km/h (2 Bft)
09/07/2012 03:50 15,7 C 87 % 1015,5 hPa 0,0 mm 2,2 km/h (1 Bft) SO 225 0 min 0 W/m 13,5 C 15,7 C 4,0 km/h (1 Bft)
09/07/2012 04:00 15,7 C 88 % 1015,4 hPa 0,0 mm 2,2 km/h (1 Bft) SO 225 0 min 0 W/m 13,7 C 15,7 C 7,2 km/h (2 Bft)
09/07/2012 04:10 15,7 C 88 % 1015,3 hPa 0,0 mm 2,9 km/h (1 Bft) S-SO 202 0 min 0 W/m 13,7 C 15,7 C 7,6 km/h (2 Bft)
09/07/2012 04:20 15,7 C 88 % 1015,2 hPa 0,0 mm 3,6 km/h (1 Bft) SO 225 0 min 0 W/m 13,7 C 15,7 C 3,6 km/h (1 Bft)
09/07/2012 04:30 15,7 C 88 % 1015,2 hPa 0,0 mm 4,7 km/h (1 Bft) SO 225 0 min 0 W/m 13,7 C 15,7 C 9,0 km/h (2 Bft)
09/07/2012 04:40 15,7 C 88 % 1015,2 hPa 0,0 mm 1,1 km/h (1 Bft) SO 225 0 min 0 W/m 13,7 C 15,7 C 4,0 km/h (1 Bft)
09/07/2012 04:50 15,7 C 88 % 1015,0 hPa 0,0 mm 3,2 km/h (1 Bft) SO 225 0 min 0 W/m 13,7 C 15,7 C 4,3 km/h (1 Bft)
09/07/2012 05:00 15,7 C 88 % 1015,2 hPa 0,0 mm 1,8 km/h (1 Bft) SO 225 0 min 0 W/m 13,7 C 15,7 C 4,3 km/h (1 Bft)
09/07/2012 05:10 15,6 C 89 % 1015,1 hPa 0,0 mm 2,9 km/h (1 Bft) SO 225 0 min 0 W/m 13,8 C 15,6 C 4,3 km/h (1 Bft)
09/07/2012 05:20 15,6 C 89 % 1015,0 hPa 0,0 mm 4,0 km/h (1 Bft) SO 225 0 min 0 W/m 13,8 C 15,6 C 6,5 km/h (2 Bft)
09/07/2012 05:30 15,6 C 89 % 1015,1 hPa 0,0 mm 2,2 km/h (1 Bft) S-SO 202 0 min 0 W/m 13,8 C 15,6 C 4,3 km/h (1 Bft)
09/07/2012 05:40 15,6 C 89 % 1015,1 hPa 0,0 mm 2,2 km/h (1 Bft) S-SO 202 0 min 0 W/m 13,8 C 15,6 C 4,0 km/h (1 Bft)
09/07/2012 05:50 15,6 C 89 % 1015,0 hPa 0,0 mm 1,4 km/h (1 Bft) SO 225 0 min 0 W/m 13,8 C 15,6 C 3,2 km/h (1 Bft)
09/07/2012 06:00 15,5 C 90 % 1015,0 hPa 0,0 mm 2,2 km/h (1 Bft) SO 225 0 min 0 W/m 13,9 C 15,5 C 4,3 km/h (1 Bft)
09/07/2012 06:10 15,5 C 90 % 1015,0 hPa 0,0 mm 2,2 km/h (1 Bft) SO 225 0 min 0 W/m 13,9 C 15,5 C 5,0 km/h (1 Bft)
09/07/2012 06:20 15,5 C 90 % 1015,0 hPa 0,0 mm 4,7 km/h (1 Bft) SO 225 0 min 0 W/m 13,9 C 15,5 C 7,9 km/h (2 Bft)
09/07/2012 06:30 15,6 C 90 % 1015,0 hPa 0,0 mm 2,9 km/h (1 Bft) S-SO 202 0 min 0 W/m 14,0 C 15,6 C 2,9 km/h (1 Bft)
09/07/2012 06:40 15,6 C 90 % 1015,1 hPa 0,0 mm 5,4 km/h (2 Bft) SO 225 0 min 0 W/m 14,0 C 15,6 C 9,4 km/h (2 Bft)
09/07/2012 06:50 15,6 C 90 % 1015,0 hPa 0,0 mm 2,9 km/h (1 Bft) SO 225 0 min 0 W/m 14,0 C 15,6 C 7,2 km/h (2 Bft)
09/07/2012 07:00 15,7 C 90 % 1015,1 hPa 0,0 mm 4,7 km/h (1 Bft) S-SO 202 0 min 0 W/m 14,1 C 15,7 C 4,7 km/h (1 Bft)
09/07/2012 07:10 15,7 C 90 % 1015,1 hPa 0,0 mm 1,1 km/h (1 Bft) SO 225 0 min 0 W/m 14,1 C 15,7 C 3,6 km/h (1 Bft)
09/07/2012 07:20 15,8 C 90 % 1015,0 hPa 0,0 mm 2,9 km/h (1 Bft) SO 225 0 min 0 W/m 14,2 C 15,8 C 7,9 km/h (2 Bft)
09/07/2012 07:30 15,8 C 90 % 1015,0 hPa 0,0 mm 4,0 km/h (1 Bft) SO 225 0 min 0 W/m 14,2 C 15,8 C 6,8 km/h (2 Bft)
09/07/2012 07:40 15,9 C 90 % 1015,1 hPa 0,0 mm 2,2 km/h (1 Bft) SO 225 0 min 0 W/m 14,3 C 15,9 C 3,2 km/h (1 Bft)
09/07/2012 07:50 16,0 C 90 % 1015,0 hPa 0,0 mm 2,2 km/h (1 Bft) O-SO 247 0 min 0 W/m 14,4 C 16,0 C 4,3 km/h (1 Bft)
09/07/2012 08:00 16,1 C 89 % 1015,0 hPa 0,0 mm 2,5 km/h (1 Bft) O-SO 247 0 min 0 W/m 14,3 C 16,1 C 6,1 km/h (2 Bft)
09/07/2012 08:10 16,2 C 89 % 1015,0 hPa 0,0 mm 1,8 km/h (1 Bft) S-SO 202 0 min 0 W/m 14,4 C 16,2 C 4,3 km/h (1 Bft)
09/07/2012 08:20 16,2 C 89 % 1015,0 hPa 0,0 mm 6,1 km/h (2 Bft) O-SO 247 0 min 0 W/m 14,4 C 16,2 C 10,4 km/h (2 Bft)
09/07/2012 08:30 16,4 C 87 % 1015,0 hPa 0,0 mm 4,3 km/h (1 Bft) O 270 0 min 0 W/m 14,2 C 16,4 C 6,8 km/h (2 Bft)
09/07/2012 08:40 16,6 C 87 % 1015,0 hPa 0,0 mm 2,5 km/h (1 Bft) SO 225 0 min 0 W/m 14,4 C 16,6 C 4,0 km/h (1 Bft)
09/07/2012 08:50 16,9 C 87 % 1015,0 hPa 0,0 mm 5,0 km/h (1 Bft) S-SO 202 0 min 0 W/m 14,7 C 16,9 C 7,6 km/h (2 Bft)
09/07/2012 09:00 17,1 C 86 % 1015,1 hPa 0,0 mm 2,9 km/h (1 Bft) S-SO 202 0 min 0 W/m 14,7 C 17,1 C 6,1 km/h (2 Bft)
09/07/2012 09:10 17,3 C 85 % 1015,1 hPa 0,0 mm 2,2 km/h (1 Bft) SO 225 0 min 0 W/m 14,8 C 17,3 C 6,1 km/h (2 Bft)
09/07/2012 09:20 17,5 C 85 % 1015,2 hPa 0,0 mm 1,4 km/h (1 Bft) SO 225 0 min 0 W/m 14,9 C 17,5 C 3,2 km/h (1 Bft)
09/07/2012 09:30 17,7 C 83 % 1015,2 hPa 0,0 mm 5,8 km/h (2 Bft) SO 225 0 min 0 W/m 14,8 C 17,7 C 10,8 km/h (2 Bft)
09/07/2012 09:40 17,8 C 82 % 1015,2 hPa 0,0 mm 3,2 km/h (1 Bft) S 180 0 min 0 W/m 14,7 C 17,8 C 4,0 km/h (1 Bft)
09/07/2012 09:50 17,9 C 82 % 1015,3 hPa 0,0 mm 2,9 km/h (1 Bft) S-SO 202 0 min 0 W/m 14,8 C 17,9 C 2,9 km/h (1 Bft)
09/07/2012 10:00 18,2 C 81 % 1015,3 hPa 0,0 mm 5,8 km/h (2 Bft) SO 225 0 min 0 W/m 14,9 C 18,2 C 14,8 km/h (3 Bft)
09/07/2012 10:10 18,3 C 80 % 1015,3 hPa 0,0 mm 4,0 km/h (1 Bft) O-SO 247 0 min 0 W/m 14,8 C 18,3 C 4,3 km/h (1 Bft)
09/07/2012 10:20 18,5 C 79 % 1015,4 hPa 0,0 mm 4,7 km/h (1 Bft) S-SO 202 0 min 0 W/m 14,8 C 18,5 C 8,6 km/h (2 Bft)
09/07/2012 10:30 18,7 C 78 % 1015,4 hPa 0,0 mm 2,5 km/h (1 Bft) S-SO 202 0 min 0 W/m 14,8 C 18,7 C 7,2 km/h (2 Bft)
09/07/2012 10:40 18,9 C 78 % 1015,4 hPa 0,0 mm 0,0 km/h (0 Bft) O-SO 247 0 min 0 W/m 15,0 C 18,9 C 0,0 km/h (0 Bft)
09/07/2012 10:50 19,6 C 74 % 1015,4 hPa 0,0 mm 7,6 km/h (2 Bft) O-SO 247 0 min 0 W/m 14,8 C 19,6 C 11,9 km/h (2 Bft)
09/07/2012 11:00 19,8 C 74 % 1015,4 hPa 0,0 mm 1,4 km/h (1 Bft) O-SO 247 0 min 0 W/m 15,0 C 19,8 C 3,2 km/h (1 Bft)
09/07/2012 11:10 20,1 C 73 % 1015,5 hPa 0,0 mm 4,0 km/h (1 Bft) S-SO 202 0 min 0 W/m 15,1 C 20,1 C 4,0 km/h (1 Bft)
09/07/2012 11:20 20,3 C 72 % 1015,5 hPa 0,0 mm 3,6 km/h (1 Bft) O-SO 247 0 min 0 W/m 15,1 C 20,3 C 7,2 km/h (2 Bft)
09/07/2012 11:30 20,3 C 71 % 1015,5 hPa 0,0 mm 2,5 km/h (1 Bft) SO 225 0 min 0 W/m 14,9 C 20,3 C 6,5 km/h (2 Bft)
09/07/2012 11:40 20,3 C 72 % 1015,6 hPa 0,0 mm 4,0 km/h (1 Bft) SO 225 0 min 0 W/m 15,1 C 20,3 C 4,0 km/h (1 Bft)
09/07/2012 11:50 20,5 C 71 % 1015,7 hPa 0,0 mm 5,8 km/h (2 Bft) SO 225 0 min 0 W/m 15,1 C 20,5 C 11,5 km/h (2 Bft)
09/07/2012 12:00 20,6 C 71 % 1015,7 hPa 0,0 mm 7,9 km/h (2 Bft) SO 225 0 min 0 W/m 15,2 C 20,6 C 9,7 km/h (2 Bft)
09/07/2012 12:10 20,7 C 72 % 1015,6 hPa 0,0 mm 2,9 km/h (1 Bft) S-SO 202 0 min 0 W/m 15,5 C 20,7 C 4,3 km/h (1 Bft)
09/07/2012 12:20 21,1 C 69 % 1015,5 hPa 0,0 mm 6,1 km/h (2 Bft) S-SO 202 0 min 0 W/m 15,2 C 21,1 C 11,5 km/h (2 Bft)
09/07/2012 12:30 21,1 C 70 % 1015,5 hPa 0,0 mm 2,5 km/h (1 Bft) SO 225 0 min 0 W/m 15,4 C 21,1 C 6,1 km/h (2 Bft)
09/07/2012 12:40 21,3 C 69 % 1015,6 hPa 0,0 mm 4,0 km/h (1 Bft) S-SO 202 0 min 0 W/m 15,4 C 21,3 C 10,8 km/h (2 Bft)
09/07/2012 12:50 21,4 C 68 % 1015,6 hPa 0,0 mm 2,9 km/h (1 Bft) SO 225 0 min 0 W/m 15,2 C 21,4 C 6,1 km/h (2 Bft)
09/07/2012 13:00 21,4 C 66 % 1015,6 hPa 0,0 mm 8,3 km/h (2 Bft) S-SO 202 0 min 0 W/m 14,8 C 21,4 C 11,2 km/h (2 Bft)
09/07/2012 13:10 21,4 C 69 % 1015,6 hPa 0,0 mm 2,5 km/h (1 Bft) O 270 0 min 0 W/m 15,5 C 21,4 C 8,6 km/h (2 Bft)
09/07/2012 13:20 21,8 C 69 % 1015,6 hPa 0,0 mm 0,7 km/h (0 Bft) S-SO 202 0 min 0 W/m 15,9 C 21,8 C 0,7 km/h (0 Bft)
09/07/2012 13:30 21,9 C 66 % 1015,5 hPa 0,0 mm 4,7 km/h (1 Bft) S-SO 202 0 min 0 W/m 15,3 C 21,9 C 6,8 km/h (2 Bft)
09/07/2012 13:40 22,1 C 66 % 1015,6 hPa 0,0 mm 5,8 km/h (2 Bft) SO 225 0 min 0 W/m 15,4 C 22,1 C 7,9 km/h (2 Bft)
09/07/2012 13:50 22,6 C 66 % 1015,5 hPa 0,0 mm 1,1 km/h (1 Bft) O-SO 247 0 min 0 W/m 15,9 C 22,6 C 3,6 km/h (1 Bft)
09/07/2012 14:00 22,9 C 65 % 1015,5 hPa 0,0 mm 1,8 km/h (1 Bft) O-SO 247 0 min 0 W/m 16,0 C 22,9 C 4,0 km/h (1 Bft)
09/07/2012 14:10 23,3 C 62 % 1015,4 hPa 0,0 mm 3,2 km/h (1 Bft) S-SO 202 0 min 0 W/m 15,6 C 23,3 C 6,8 km/h (2 Bft)
09/07/2012 14:20 23,4 C 62 % 1015,5 hPa 0,0 mm 5,0 km/h (1 Bft) SO 225 0 min 0 W/m 15,7 C 23,4 C 9,7 km/h (2 Bft)
09/07/2012 14:30 23,6 C 62 % 1015,4 hPa 0,0 mm 4,0 km/h (1 Bft) SO 225 0 min 0 W/m 15,9 C 23,6 C 8,3 km/h (2 Bft)
09/07/2012 14:40 23,8 C 60 % 1015,4 hPa 0,0 mm 5,8 km/h (2 Bft) S-SO 202 0 min 0 W/m 15,6 C 23,8 C 11,2 km/h (2 Bft)
09/07/2012 14:50 23,8 C 60 % 1015,3 hPa 0,0 mm 5,8 km/h (2 Bft) SO 225 0 min 0 W/m 15,6 C 23,8 C 10,1 km/h (2 Bft)
09/07/2012 15:00 23,2 C 60 % 1015,3 hPa 0,0 mm 4,7 km/h (1 Bft) SO 225 0 min 0 W/m 15,0 C 23,2 C 4,7 km/h (1 Bft)
09/07/2012 15:10 22,8 C 65 % 1015,3 hPa 0,0 mm 2,2 km/h (1 Bft) O-SO 247 0 min 0 W/m 15,9 C 22,8 C 4,0 km/h (1 Bft)
09/07/2012 15:20 22,9 C 63 % 1015,3 hPa 0,0 mm 2,5 km/h (1 Bft) O-SO 247 0 min 0 W/m 15,5 C 22,9 C 6,5 km/h (2 Bft)
09/07/2012 15:30 23,0 C 62 % 1015,3 hPa 0,0 mm 7,6 km/h (2 Bft) O-SO 247 0 min 0 W/m 15,3 C 23,0 C 9,7 km/h (2 Bft)
09/07/2012 15:40 23,1 C 65 % 1015,3 hPa 0,0 mm 3,6 km/h (1 Bft) O-SO 247 0 min 0 W/m 16,2 C 23,1 C 11,5 km/h (2 Bft)
09/07/2012 15:50 23,0 C 63 % 1015,3 hPa 0,0 mm 4,0 km/h (1 Bft) SO 225 0 min 0 W/m 15,6 C 23,0 C 7,6 km/h (2 Bft)
09/07/2012 16:00 23,1 C 64 % 1015,3 hPa 0,0 mm 4,7 km/h (1 Bft) O-SO 247 0 min 0 W/m 15,9 C 23,1 C 10,4 km/h (2 Bft)
09/07/2012 16:10 23,2 C 63 % 1015,3 hPa 0,0 mm 0,7 km/h (0 Bft) SO 225 0 min 0 W/m 15,8 C 23,2 C 4,0 km/h (1 Bft)
09/07/2012 16:20 23,1 C 61 % 1015,2 hPa 0,0 mm 5,0 km/h (1 Bft) S-SO 202 0 min 0 W/m 15,2 C 23,1 C 6,5 km/h (2 Bft)
09/07/2012 16:30 22,7 C 63 % 1015,1 hPa 0,0 mm 0,7 km/h (0 Bft) S-SO 202 0 min 0 W/m 15,3 C 22,7 C 0,7 km/h (0 Bft)
09/07/2012 16:40 22,4 C 63 % 1015,2 hPa 0,0 mm 5,8 km/h (2 Bft) S-SO 202 0 min 0 W/m 15,0 C 22,4 C 7,9 km/h (2 Bft)
09/07/2012 16:50 22,4 C 64 % 1015,2 hPa 0,0 mm 4,7 km/h (1 Bft) O 270 0 min 0 W/m 15,2 C 22,4 C 4,7 km/h (1 Bft)
09/07/2012 17:00 22,4 C 64 % 1015,1 hPa 0,0 mm 4,3 km/h (1 Bft) O 270 0 min 0 W/m 15,2 C 22,4 C 8,6 km/h (2 Bft)
09/07/2012 17:10 22,4 C 65 % 1015,1 hPa 0,0 mm 1,4 km/h (1 Bft) S-SO 202 0 min 0 W/m 15,5 C 22,4 C 3,6 km/h (1 Bft)
09/07/2012 17:20 22,8 C 64 % 1015,2 hPa 0,0 mm 0,4 km/h (0 Bft) S-SO 202 0 min 0 W/m 15,6 C 22,8 C 3,2 km/h (1 Bft)
09/07/2012 17:30 22,9 C 62 % 1015,0 hPa 0,0 mm 4,3 km/h (1 Bft) SO 225 0 min 0 W/m 15,2 C 22,9 C 6,8 km/h (2 Bft)
09/07/2012 17:40 22,9 C 62 % 1015,0 hPa 0,0 mm 2,5 km/h (1 Bft) S-SO 202 0 min 0 W/m 15,2 C 22,9 C 2,9 km/h (1 Bft)
09/07/2012 17:50 23,0 C 61 % 1015,1 hPa 0,0 mm 2,2 km/h (1 Bft) O-SO 247 0 min 0 W/m 15,1 C 23,0 C 4,3 km/h (1 Bft)
09/07/2012 18:00 22,8 C 62 % 1014,9 hPa 0,0 mm 1,4 km/h (1 Bft) S 180 0 min 0 W/m 15,1 C 22,8 C 3,2 km/h (1 Bft)
09/07/2012 18:10 22,7 C 63 % 1014,9 hPa 0,0 mm 0,7 km/h (0 Bft) O-SO 247 0 min 0 W/m 15,3 C 22,7 C 4,3 km/h (1 Bft)
09/07/2012 18:20 23,0 C 62 % 1014,8 hPa 0,0 mm 6,1 km/h (2 Bft) S 180 0 min 0 W/m 15,3 C 23,0 C 6,1 km/h (2 Bft)
09/07/2012 18:30 23,1 C 61 % 1014,8 hPa 0,0 mm 3,2 km/h (1 Bft) S-SO 202 0 min 0 W/m 15,2 C 23,1 C 4,3 km/h (1 Bft)
09/07/2012 18:40 23,1 C 61 % 1014,7 hPa 0,0 mm 2,2 km/h (1 Bft) SO 225 0 min 0 W/m 15,2 C 23,1 C 4,3 km/h (1 Bft)
09/07/2012 18:50 22,9 C 62 % 1014,8 hPa 0,0 mm 0,0 km/h (0 Bft) SO 225 0 min 0 W/m 15,2 C 22,9 C 0,0 km/h (0 Bft)
09/07/2012 19:00 22,7 C 63 % 1014,8 hPa 0,0 mm 0,4 km/h (0 Bft) SO 225 0 min 0 W/m 15,3 C 22,7 C 0,4 km/h (0 Bft)
09/07/2012 19:10 22,4 C 61 % 1014,7 hPa 0,0 mm 4,7 km/h (1 Bft) O-SO 247 0 min 0 W/m 14,5 C 22,4 C 4,7 km/h (1 Bft)
09/07/2012 19:20 22,1 C 63 % 1014,7 hPa 0,0 mm 0,0 km/h (0 Bft) SO 225 0 min 0 W/m 14,7 C 22,1 C 0,0 km/h (0 Bft)
09/07/2012 19:30 22,2 C 62 % 1014,6 hPa 0,0 mm 6,1 km/h (2 Bft) SO 225 0 min 0 W/m 14,6 C 22,2 C 6,5 km/h (2 Bft)
09/07/2012 19:40 22,1 C 61 % 1014,6 hPa 0,0 mm 2,5 km/h (1 Bft) SO 225 0 min 0 W/m 14,2 C 22,1 C 4,0 km/h (1 Bft)
09/07/2012 19:50 22,0 C 62 % 1014,7 hPa 0,0 mm 2,5 km/h (1 Bft) SO 225 0 min 0 W/m 14,4 C 22,0 C 4,0 km/h (1 Bft)
09/07/2012 20:00 22,1 C 63 % 1014,5 hPa 0,0 mm 2,9 km/h (1 Bft) SO 225 0 min 0 W/m 14,7 C 22,1 C 7,2 km/h (2 Bft)
09/07/2012 20:10 21,9 C 65 % 1014,6 hPa 0,0 mm 4,3 km/h (1 Bft) S 180 0 min 0 W/m 15,0 C 21,9 C 4,3 km/h (1 Bft)
09/07/2012 20:20 21,7 C 65 % 1014,7 hPa 0,0 mm 2,2 km/h (1 Bft) SO 225 0 min 0 W/m 14,8 C 21,7 C 4,0 km/h (1 Bft)
09/07/2012 20:30 21,4 C 65 % 1014,6 hPa 0,0 mm 3,2 km/h (1 Bft) SO 225 0 min 0 W/m 14,5 C 21,4 C 3,2 km/h (1 Bft)
09/07/2012 20:40 21,2 C 65 % 1014,6 hPa 0,0 mm 4,7 km/h (1 Bft) O-SO 247 0 min 0 W/m 14,4 C 21,2 C 4,7 km/h (1 Bft)
09/07/2012 20:50 20,8 C 66 % 1014,6 hPa 0,0 mm 7,2 km/h (2 Bft) SO 225 0 min 0 W/m 14,2 C 20,8 C 11,5 km/h (2 Bft)
09/07/2012 21:00 20,4 C 68 % 1014,7 hPa 0,0 mm 3,2 km/h (1 Bft) S-SO 202 0 min 0 W/m 14,3 C 20,4 C 3,2 km/h (1 Bft)
09/07/2012 21:10 20,2 C 70 % 1014,7 hPa 0,0 mm 4,7 km/h (1 Bft) S 180 0 min 0 W/m 14,5 C 20,2 C 5,8 km/h (2 Bft)
09/07/2012 21:20 19,9 C 70 % 1014,7 hPa 0,0 mm 5,8 km/h (2 Bft) O 270 0 min 0 W/m 14,3 C 19,9 C 7,6 km/h (2 Bft)
09/07/2012 21:30 19,8 C 71 % 1014,6 hPa 0,0 mm 2,2 km/h (1 Bft) SO 225 0 min 0 W/m 14,4 C 19,8 C 4,3 km/h (1 Bft)
09/07/2012 21:40 19,6 C 70 % 1014,6 hPa 0,0 mm 2,9 km/h (1 Bft) S-SO 202 0 min 0 W/m 14,0 C 19,6 C 4,3 km/h (1 Bft)
09/07/2012 21:50 19,4 C 71 % 1014,8 hPa 0,0 mm 0,4 km/h (0 Bft) SO 225 0 min 0 W/m 14,0 C 19,4 C 0,4 km/h (0 Bft)
09/07/2012 22:00 19,3 C 71 % 1014,8 hPa 0,0 mm 2,2 km/h (1 Bft) SO 225 0 min 0 W/m 13,9 C 19,3 C 4,3 km/h (1 Bft)
09/07/2012 22:10 19,1 C 71 % 1015,0 hPa 0,0 mm 0,0 km/h (0 Bft) O 270 0 min 0 W/m 13,7 C 19,1 C 0,0 km/h (0 Bft)
09/07/2012 22:20 18,9 C 72 % 1015,3 hPa 0,0 mm 0,0 km/h (0 Bft) SO 225 0 min 0 W/m 13,7 C 18,9 C 0,0 km/h (0 Bft)
09/07/2012 22:30 18,8 C 73 % 1015,3 hPa 0,0 mm 0,0 km/h (0 Bft) S-SO 202 0 min 0 W/m 13,9 C 18,8 C 0,0 km/h (0 Bft)
09/07/2012 22:40 18,6 C 74 % 1015,4 hPa 0,0 mm 0,0 km/h (0 Bft) S-SO 202 0 min 0 W/m 13,9 C 18,6 C 0,0 km/h (0 Bft)
09/07/2012 22:50 18,4 C 74 % 1015,5 hPa 0,0 mm 0,0 km/h (0 Bft) SO 225 0 min 0 W/m 13,7 C 18,4 C 0,0 km/h (0 Bft)
09/07/2012 23:00 18,3 C 74 % 1015,6 hPa 0,0 mm 0,0 km/h (0 Bft) O-SO 247 0 min 0 W/m 13,6 C 18,3 C 0,0 km/h (0 Bft)
09/07/2012 23:10 18,0 C 74 % 1015,7 hPa 0,0 mm 0,0 km/h (0 Bft) O-SO 247 0 min 0 W/m 13,3 C 18,0 C 0,0 km/h (0 Bft)
_ Min-Heure 01:30 15:00 20:00 - 23:10 - - - - 01:00 01:30 23:10
Minimum _ 15,1 C 60 % 1014,5 hPa - 0,0 km/h (0 Bft) - - - - 12,5 C 15,1 C 0,0 km/h (0 Bft)
_ Max-Heure 14:50 07:50 02:10 23:10 13:00 - - 23:10 23:10 15:40 14:50 10:00
Maximum _ 23,8 C 90 % 1015,8 hPa 0,0 mm 8,3 km/h
S-SO (2 Bft)
- - 0 min 0 W/m 16,2 C 23,8 C 14,8 km/h
SO (3 Bft)
Moyenne _ 19,0 C 76 % 1015,2 hPa #0,0 mm 2,9 km/h (1 Bft) SO - #0 min. 0 W/m 14,4 C 19,0 C 5,1 km/h (1 Bft)
Saint Bonnet de Bellac- Haute Vienne - France